sat.trackr.live / text

‹ back to catalog

CAPELLA-20 (ACADIA-10)

NORAD 68485 · 2026-067BX

PAYLOAD ACTIVE UNKNOWN

§ Identity

Operator
Country
US
Launch date
2026-03-30
Launch site
AFWTR
Launch vehicle
Mass (kg)
RCS (m²)

External: N2YO · Heavens-Above · Gunter

§ Orbital elements

Epoch: 2026-09-17T19:40:20.193024Z

Period
96.60 min
Inclination
97.7635°
Eccentricity
0.0002920
Mean motion
14.90689369 rev/d
Perigee alt
593.7 km
Apogee alt
597.8 km
Semi-major
6,973.9 km
B*
4.2249e-4
RAAN
217.6314°
Arg perigee
70.7006°
Mean anomaly
289.4528°
Rev number
2,553

§ Raw data

CAPELLA-20 (ACADIA-10)1 68485U 26067BX  26260.81967816  .00004090  00000+0  42249-3 0  99902 68485  97.7635 217.6314 0002920  70.7006 289.4528 14.90689369 25535

JSON: /api/v1/satellites/68485 · /tle

For live sub-satellite position, see the globe view (requires WebGL).

§ Visibility from observer

Set your observer location to see the next 7 days of passes ≥ 10°. The values pass through the URL so the page stays shareable.

No JS? Fill the form by hand. The geolocation button needs JavaScript.